Starlink 30492

operational
NORAD ID: 57921 Int'l Des: 2023-147 Owner: SPXS Country: US Constellation: starlink
LEOCIRCULAR

About Starlink 30492

Description loading...

Live Position

Loading 3D Globe...

Upcoming Passes

Altitude History

Altitude vs Time

uPlot chart will show altitude changes over time

Two-Line Element Set

1 57921U 23147J 26101.82255610 -.00000049 00000-0 77456-5 0 9998
2 57921 43.0052 138.2250 0001464 268.7574 91.3110 15.27576685141660
Epoch: Apr 11, 2026 • Age: 10 hours

Current Status

Altitude 482.4 km
Velocity 7.63 km/s
Sub-Earth Point 11.28°N, 15.07°E
Launch Date Sep 24, 2023
Age 2.5 years
Type internet

Technical Details

Classification Payload
Mass 730.00 kg
Dry Mass 700.00 kg
Total Mass 730.00 kg
Length 0.30 m
Diameter 4.10 m
Span 29.00 m
Shape Box + pan
Manufacturer SPXS
Bus Type Starlink V2M
Phase Status In Orbit
Owner/State SPXS/US

Large Constellations

Loading constellations...